Time,TemperatureF,DewpointF,PressureIn,WindDirection,WindDirectionDegrees,WindSpeedMPH,WindSpeedGustMPH,Humidity,HourlyPrecipIn,Conditions,Clouds,dailyrainin,SolarRadiationWatts/m^2,SoftwareType,DateUTC
2013-06-28 00:00:00,57.0,49.0,30.33,WSW,250,5.0,-999.0,76,-99.99,,,-99.99,0.000000,,2013-06-28 06:00:00,
2013-06-28 02:00:00,51.0,49.0,30.33,WSW,250,5.0,-999.0,90,-99.99,,,-99.99,0.000000,,2013-06-28 08:00:00,
2013-06-28 03:00:00,52.0,49.0,30.33,WSW,252,4.0,-999.0,90,-99.99,,,-99.99,0.010000,,2013-06-28 09:00:00,
2013-06-28 04:00:00,51.0,48.0,30.33,WSW,243,5.0,-999.0,89,-99.99,,,-99.99,0.010000,,2013-06-28 10:00:00,
2013-06-28 05:00:00,51.0,47.0,30.33,SW,216,6.0,-999.0,86,-99.99,,,-99.99,0.020000,,2013-06-28 11:00:00,
2013-06-28 06:00:00,52.0,48.0,30.33,SW,216,6.0,-999.0,85,-99.99,,,-99.99,7.630000,,2013-06-28 12:00:00,
2013-06-28 07:00:00,59.0,51.0,30.33,SW,220,6.0,-999.0,73,-99.99,,,-99.99,100.500000,,2013-06-28 13:00:00,
2013-06-28 08:00:00,66.0,52.0,30.33,SW,219,5.0,-999.0,62,-99.99,,,-99.99,234.600006,,2013-06-28 14:00:00,
2013-06-28 09:00:00,70.0,57.0,30.33,SSW,199,5.0,-999.0,64,-99.99,,,-99.99,382.000000,,2013-06-28 15:00:00,
2013-06-28 10:00:00,74.0,54.0,30.33,South,173,6.0,-999.0,51,-99.99,,,-99.99,523.400024,,2013-06-28 16:00:00,
2013-06-28 11:00:00,78.0,49.0,30.33,SW,222,3.0,-999.0,36,-99.99,,,-99.99,648.500000,,2013-06-28 17:00:00,
2013-06-28 12:00:00,79.0,49.0,30.32,WNW,302,6.0,-999.0,34,-99.99,,,-99.99,740.700012,,2013-06-28 18:00:00,
2013-06-28 12:52:00,79.0,49.0,30.32,WNW,302,6.0,-999.0,34,-99.99,,,-99.99,740.700012,,2013-06-28 18:52:00,
2013-06-28 13:00:00,81.0,51.0,30.31,NW,315,10.0,-999.0,35,-99.99,,,-99.99,796.500000,,2013-06-28 19:00:00,
2013-06-28 14:00:00,81.0,49.0,30.30,NW,324,13.0,-999.0,33,-99.99,,,-99.99,815.000000,,2013-06-28 20:00:00,
2013-06-28 15:00:00,80.0,54.0,30.30,North,349,10.0,-999.0,41,-99.99,,,-99.99,812.000000,,2013-06-28 21:00:00,
2013-06-28 16:00:00,81.0,58.0,30.29,NNW,348,7.0,-999.0,46,-99.99,,,-99.99,717.400024,,2013-06-28 22:00:00,
2013-06-28 17:00:00,80.0,54.0,30.28,North,358,8.0,-999.0,41,-99.99,,,-99.99,611.700012,,2013-06-28 23:00:00,
2013-06-28 17:53:00,80.0,54.0,30.28,North,358,8.0,-999.0,41,-99.99,,,-99.99,611.700012,,2013-06-28 23:53:00,
2013-06-28 18:00:00,79.0,55.0,30.28,NE,36,7.0,-999.0,44,-99.99,,,-99.99,482.899994,,2013-06-29 00:00:00,
2013-06-28 18:52:00,79.0,55.0,30.28,NE,36,7.0,-999.0,44,-99.99,,,-99.99,482.899994,,2013-06-29 00:52:00,
2013-06-28 19:00:00,77.0,56.0,30.29,NE,36,7.0,-999.0,48,-99.99,,,-99.99,334.100006,,2013-06-29 01:00:00,
2013-06-28 19:52:00,77.0,56.0,30.29,NE,36,7.0,-999.0,48,-99.99,,,-99.99,334.100006,,2013-06-29 01:52:00,
2013-06-28 20:00:00,74.0,58.0,30.29,NNE,23,6.0,-999.0,56,-99.99,,,-99.99,190.100006,,2013-06-29 02:00:00,
2013-06-28 20:51:00,74.0,58.0,30.29,NNE,23,6.0,-999.0,56,-99.99,,,-99.99,190.100006,,2013-06-29 02:51:00,
2013-06-28 21:00:00,69.0,58.0,30.30,NNE,26,3.0,-999.0,68,-99.99,,,-99.99,64.379997,,2013-06-29 03:00:00,
2013-06-28 21:51:00,69.0,58.0,30.30,NNE,26,3.0,-999.0,68,-99.99,,,-99.99,64.379997,,2013-06-29 03:51:00,
2013-06-28 22:00:00,63.0,56.0,30.31,WNW,297,2.0,-999.0,76,-99.99,,,-99.99,2.870000,,2013-06-29 04:00:00,
2013-06-28 22:51:00,63.0,56.0,30.31,WNW,297,2.0,-999.0,76,-99.99,,,-99.99,2.870000,,2013-06-29 04:51:00,
2013-06-28 23:00:00,64.0,55.0,30.31,North,358,2.0,-999.0,73,-99.99,,,-99.99,0.000000,,2013-06-29 05:00:00,